Terug naar catalogus

STARLINK-11392

ActiefCommunicatieVLEO
NORAD 63056·PAYLOAD·🇺🇸 United States

Gelanceerd Feb 21, 2025 vanaf Cape Canaveral Space Force Station

Loading…

Volgende Passages (komende 24 uur)

TLE

VersSource: CelesTrak SupGP

Epoch: Sep 15, 2026, 02:12 UTC

1 63056C 25035E   26258.09215278  .00025943  00000+0  20161-3 0  2585
2 63056  42.9998 313.8415 0001510 263.4502 225.6850 15.70812861    15

Volg STARLINK-11392 in realtime met AllMySat

Download on the App Store